Location: Navajo
(48.7922°N, 105.0603°W)
Time: 17:12:34
(UTC+00:00)

KKS-1 - Pass Details

Date: 02 July 2022
Orbit: 635 x 648 km, 98.2° (Epoch: 09 August)

Event Time Altitude Azimuth Distance (km) Brightness Sun altitude
Rises 04:14:35 0° 24° (NNE) 2,977 ? -8.8°
Reaches altitude 10° 04:17:08 10° 37° (NE) 2,059 ? -9.1°
Maximum altitude 04:20:53 26° 94° (E) 1,291 ? -9.4°
Enters shadow 04:23:58 13° 145° (SE) 1,843 ? -9.8°
